"TOA5","C150","CR1000","43625","CR1000.Std.22","CPU:247411_r6_eppley2.CR1","44759","eppley_data"
"TIMESTAMP","RECORD","PIR_net","Case_Temp_K","PSP_in_Avg","PSP_in_Min","PSP_in_Max","PIR_in_Avg","PIR_in_Min","PIR_in_Max","wd_2minavg","ws_2minavg","AirTC","RH","BP_mbar"
"TS","RN","","","","","","","","","","","Deg C","Percent","Millibar"
"","","Smp","Smp","Avg","Min","Max","Avg","Min","Max","Smp","Smp","Smp","Smp","Smp"
"2015-01-18 23:00:00",54627,"NAN","NAN","NAN","NAN","NAN","NAN","NAN","NAN",191.5,6.24,-7.993,70.97,985
"TOA5","C150","CR1000","43625","CR1000.Std.22","CPU:247411_r6_eppley2.CR1","44759","eppley_data"
"TIMESTAMP","RECORD","PIR_net","Case_Temp_K","PSP_in_Avg","PSP_in_Min","PSP_in_Max","PIR_in_Avg","PIR_in_Min","PIR_in_Max","wd_2minavg","ws_2minavg","AirTC","RH","BP_mbar"
"TS","RN","","","","","","","","","","","Deg C","Percent","Millibar"
"","","Smp","Smp","Avg","Min","Max","Avg","Min","Max","Smp","Smp","Smp","Smp","Smp"
"2015-01-18 23:00:00",54627,"NAN","NAN","NAN","NAN","NAN","NAN","NAN","NAN",191.5,6.24,-7.993,70.97,985
"2015-01-18 23:10:00",54628,"NAN","NAN","NAN","NAN","NAN","NAN","NAN","NAN",187.3,6.301,-8.2,68.59,985
"2015-01-18 23:20:00",54629,"NAN","NAN","NAN","NAN","NAN","NAN","NAN","NAN",187.4,5.567,-8.06,69.85,985
"2015-01-18 23:30:00",54630,"NAN","NAN","NAN","NAN","NAN","NAN","NAN","NAN",191,5.233,-8.16,71.79,986
"2015-01-18 23:40:00",54631,"NAN","NAN","NAN","NAN","NAN","NAN","NAN","NAN",200.7,6.368,-8.2,71.79,986
"2015-01-18 23:50:00",54632,"NAN","NAN","NAN","NAN","NAN","NAN","NAN","NAN",203.2,6.495,-8.02,71.28,986
"2015-01-19 00:00:00",54633,"NAN","NAN","NAN","NAN","NAN","NAN","NAN","NAN",188.9,5.738,-7.748,73.74,986
"2015-01-19 00:10:00",54634,"NAN","NAN","NAN","NAN","NAN","NAN","NAN","NAN",180.7,6.604,-7.509,73.68,986
"2015-01-19 00:20:00",54635,"NAN","NAN","NAN","NAN","NAN","NAN","NAN","NAN",166.7,6.853,-7.135,71.22,986
"2015-01-19 00:30:00",54636,"NAN","NAN","NAN","NAN","NAN","NAN","NAN","NAN",176,5.597,-6.862,74.49,986
"2015-01-19 00:40:00",54637,"NAN","NAN","NAN","NAN","NAN","NAN","NAN","NAN",174.2,5.06,-6.864,72.95,986
"2015-01-19 00:50:00",54638,"NAN","NAN","NAN","NAN","NAN","NAN","NAN","NAN",140.7,3.624,-6.729,70.97,986
"2015-01-19 01:00:00",54639,"NAN","NAN","NAN","NAN","NAN","NAN","NAN","NAN",153.7,4.357,-6.117,74.11,986
"2015-01-19 01:10:00",54640,"NAN","NAN","NAN","NAN","NAN","NAN","NAN","NAN",174.1,6.259,-5.778,72.13,986
"2015-01-19 01:20:00",54641,"NAN","NAN","NAN","NAN","NAN","NAN","NAN","NAN",173.7,7.185,-5.95,72.63,986
"2015-01-19 01:30:00",54642,"NAN","NAN","NAN","NAN","NAN","NAN","NAN","NAN",177.8,6.429,-5.917,74.06,986
"2015-01-19 01:40:00",54643,"NAN","NAN","NAN","NAN","NAN","NAN","NAN","NAN",178.7,6.632,-5.849,72.77,986
"2015-01-19 01:50:00",54644,"NAN","NAN","NAN","NAN","NAN","NAN","NAN","NAN",177.2,6.433,-5.712,73.62,986
"2015-01-19 02:00:00",54645,"NAN","NAN","NAN","NAN","NAN","NAN","NAN","NAN",171.7,6.039,-5.746,73.48,986
"2015-01-19 02:10:00",54646,"NAN","NAN","NAN","NAN","NAN","NAN","NAN","NAN",175,6.224,-5.645,74.88,986
"2015-01-19 02:20:00",54647,"NAN","NAN","NAN","NAN","NAN","NAN","NAN","NAN",179.9,8.22,-5.508,72.02,986
"2015-01-19 02:30:00",54648,"NAN","NAN","NAN","NAN","NAN","NAN","NAN","NAN",181.3,7.035,-5.407,72.66,986
"2015-01-19 02:40:00",54649,"NAN","NAN","NAN","NAN","NAN","NAN","NAN","NAN",181.1,7.819,-5.441,70,986
"2015-01-19 02:50:00",54650,"NAN","NAN","NAN","NAN","NAN","NAN","NAN","NAN",185.9,9.13,-5.646,73.99,986
"2015-01-19 03:00:00",54651,"NAN","NAN","NAN","NAN","NAN","NAN","NAN","NAN",186.7,9.5,-5.783,75.63,987
"2015-01-19 03:10:00",54652,"NAN","NAN","NAN","NAN","NAN","NAN","NAN","NAN",187.1,8.12,-5.681,75.76,987
"2015-01-19 03:20:00",54653,"NAN","NAN","NAN","NAN","NAN","NAN","NAN","NAN",187.4,7.072,-5.782,77.06,987
"2015-01-19 03:30:00",54654,"NAN","NAN","NAN","NAN","NAN","NAN","NAN","NAN",192.7,9.12,-5.782,78.15,987
"2015-01-19 03:40:00",54655,"NAN","NAN","NAN","NAN","NAN","NAN","NAN","NAN",195.1,9,-6.088,82.4,987
"2015-01-19 03:50:00",54656,"NAN","NAN","NAN","NAN","NAN","NAN","NAN","NAN",193,8.48,-6.087,85.3,987
"2015-01-19 04:00:00",54657,"NAN","NAN","NAN","NAN","NAN","NAN","NAN","NAN",190.4,8.86,-6.019,84.4,987
"2015-01-19 04:10:00",54658,"NAN","NAN","NAN","NAN","NAN","NAN","NAN","NAN",194.1,8.37,-5.883,84.7,987
"2015-01-19 04:20:00",54659,"NAN","NAN","NAN","NAN","NAN","NAN","NAN","NAN",193.2,8.95,-5.814,83,987
"2015-01-19 04:30:00",54660,"NAN","NAN","NAN","NAN","NAN","NAN","NAN","NAN",195.3,10.13,-5.883,82,988
"2015-01-19 04:40:00",54661,"NAN","NAN","NAN","NAN","NAN","NAN","NAN","NAN",192.5,9.51,-5.985,83.5,988
"2015-01-19 04:50:00",54662,"NAN","NAN","NAN","NAN","NAN","NAN","NAN","NAN",195.7,9.92,-6.087,82.2,988
"2015-01-19 05:00:00",54663,"NAN","NAN","NAN","NAN","NAN","NAN","NAN","NAN",195.6,9.63,-6.121,84.4,988
"2015-01-19 05:10:00",54664,"NAN","NAN","NAN","NAN","NAN","NAN","NAN","NAN",195.6,9.52,-6.087,82.3,988
"2015-01-19 05:20:00",54665,"NAN","NAN","NAN","NAN","NAN","NAN","NAN","NAN",195.3,9.19,-6.087,84.2,988
"2015-01-19 05:30:00",54666,"NAN","NAN","NAN","NAN","NAN","NAN","NAN","NAN",199.4,9.98,-6.086,84.2,988
"2015-01-19 05:40:00",54667,"NAN","NAN","NAN","NAN","NAN","NAN","NAN","NAN",192.7,9.74,-6.326,84.8,988
"2015-01-19 05:50:00",54668,"NAN","NAN","NAN","NAN","NAN","NAN","NAN","NAN",193.3,8.84,-6.086,83.2,988
"2015-01-19 06:00:00",54669,"NAN","NAN","NAN","NAN","NAN","NAN","NAN","NAN",191.9,9.73,-5.985,79.69,988
"2015-01-19 06:10:00",54670,"NAN","NAN","NAN","NAN","NAN","NAN","NAN","NAN",191.6,9.75,-6.053,79.41,988
"2015-01-19 06:20:00",54671,"NAN","NAN","NAN","NAN","NAN","NAN","NAN","NAN",192.4,7.833,-6.121,80.4,988
"2015-01-19 06:30:00",54672,"NAN","NAN","NAN","NAN","NAN","NAN","NAN","NAN",201.6,9.07,-5.951,80.9,989
"2015-01-19 06:40:00",54673,"NAN","NAN","NAN","NAN","NAN","NAN","NAN","NAN",209.7,7.718,-6.292,81.2,989
"2015-01-19 06:50:00",54674,"NAN","NAN","NAN","NAN","NAN","NAN","NAN","NAN",201.9,6.857,-6.087,83.2,989
"2015-01-19 07:00:00",54675,"NAN","NAN","NAN","NAN","NAN","NAN","NAN","NAN",205.1,6.16,-5.984,82.3,989
"2015-01-19 07:10:00",54676,"NAN","NAN","NAN","NAN","NAN","NAN","NAN","NAN",204.5,6.849,-6.084,82.2,989
"2015-01-19 07:20:00",54677,"NAN","NAN","NAN","NAN","NAN","NAN","NAN","NAN",205.9,6.907,-6.084,81.8,989
"2015-01-19 07:30:00",54678,"NAN","NAN","NAN","NAN","NAN","NAN","NAN","NAN",206.2,6.693,-6.185,81.4,989
"2015-01-19 07:40:00",54679,"NAN","NAN","NAN","NAN","NAN","NAN","NAN","NAN",205.6,6.242,-5.946,78.84,989
"2015-01-19 07:50:00",54680,"NAN","NAN","NAN","NAN","NAN","NAN","NAN","NAN",206.3,6.174,-5.946,78.68,989
"2015-01-19 08:00:00",54681,"NAN","NAN","NAN","NAN","NAN","NAN","NAN","NAN",200.6,5.367,-5.843,78.54,990
"2015-01-19 08:10:00",54682,"NAN","NAN","NAN","NAN","NAN","NAN","NAN","NAN",206.4,7.144,-5.911,78.47,990
"2015-01-19 08:20:00",54683,"NAN","NAN","NAN","NAN","NAN","NAN","NAN","NAN",206,6.477,-5.707,74.42,990
"2015-01-19 08:30:00",54684,"NAN","NAN","NAN","NAN","NAN","NAN","NAN","NAN",210.9,7.072,-5.775,75.44,990
"2015-01-19 08:40:00",54685,"NAN","NAN","NAN","NAN","NAN","NAN","NAN","NAN",207.7,6.666,-5.911,78.17,990
"2015-01-19 08:50:00",54686,"NAN","NAN","NAN","NAN","NAN","NAN","NAN","NAN",211.2,7.159,-5.911,78.51,990
"2015-01-19 09:00:00",54687,"NAN","NAN","NAN","NAN","NAN","NAN","NAN","NAN",215.2,7.651,-5.843,77.31,990
"2015-01-19 09:10:00",54688,"NAN","NAN","NAN","NAN","NAN","NAN","NAN","NAN",212.8,7.396,-5.843,76.22,990
"2015-01-19 09:20:00",54689,"NAN","NAN","NAN","NAN","NAN","NAN","NAN","NAN",207.3,7.703,-5.775,77.08,990
"2015-01-19 09:30:00",54690,"NAN","NAN","NAN","NAN","NAN","NAN","NAN","NAN",204.6,8.08,-5.809,77.62,991
"2015-01-19 09:40:00",54691,"NAN","NAN","NAN","NAN","NAN","NAN","NAN","NAN",206.8,7.79,-5.979,78.81,991
"2015-01-19 09:50:00",54692,"NAN","NAN","NAN","NAN","NAN","NAN","NAN","NAN",206.4,8.23,-5.877,78.2,991
"2015-01-19 10:00:00",54693,"NAN","NAN","NAN","NAN","NAN","NAN","NAN","NAN",211.4,8.99,-5.945,77.11,991
"2015-01-19 10:10:00",54694,"NAN","NAN","NAN","NAN","NAN","NAN","NAN","NAN",200.9,7.905,-5.911,77.93,991
"2015-01-19 10:20:00",54695,"NAN","NAN","NAN","NAN","NAN","NAN","NAN","NAN",204.9,7.912,-5.979,78.37,991
"2015-01-19 10:30:00",54696,"NAN","NAN","NAN","NAN","NAN","NAN","NAN","NAN",208,7.392,-6.047,80.4,991
"2015-01-19 10:40:00",54697,"NAN","NAN","NAN","NAN","NAN","NAN","NAN","NAN",214.1,8.6,-6.081,77.72,991
"2015-01-19 10:50:00",54698,"NAN","NAN","NAN","NAN","NAN","NAN","NAN","NAN",203.5,7.005,-5.945,76.46,991
"2015-01-19 11:00:00",54699,"NAN","NAN","NAN","NAN","NAN","NAN","NAN","NAN",192.4,5.878,-5.945,77.76,992
"2015-01-19 11:10:00",54700,"NAN","NAN","NAN","NAN","NAN","NAN","NAN","NAN",180.1,5.321,-5.808,75.44,992
"2015-01-19 11:20:00",54701,"NAN","NAN","NAN","NAN","NAN","NAN","NAN","NAN",182,4.425,-5.775,76.63,992
"2015-01-19 11:30:00",54702,"NAN","NAN","NAN","NAN","NAN","NAN","NAN","NAN",169.7,4.408,-6.047,79.22,992
"2015-01-19 11:40:00",54703,"NAN","NAN","NAN","NAN","NAN","NAN","NAN","NAN",185.3,4.066,-5.775,76.73,992
"2015-01-19 11:50:00",54704,"NAN","NAN","NAN","NAN","NAN","NAN","NAN","NAN",186,6.613,-5.877,77.08,992
"2015-01-19 12:00:00",54705,"NAN","NAN","NAN","NAN","NAN","NAN","NAN","NAN",189.8,6.277,-5.843,78.13,992
"2015-01-19 12:10:00",54706,"NAN","NAN","NAN","NAN","NAN","NAN","NAN","NAN",207.1,5.503,-5.741,76.29,992
"2015-01-19 12:20:00",54707,"NAN","NAN","NAN","NAN","NAN","NAN","NAN","NAN",183.1,6.144,-5.672,76.5,992
"2015-01-19 12:30:00",54708,"NAN","NAN","NAN","NAN","NAN","NAN","NAN","NAN",184.3,5.105,-5.979,81,992
"2015-01-19 12:40:00",54709,"NAN","NAN","NAN","NAN","NAN","NAN","NAN","NAN",188,5.043,-5.979,81,992
"2015-01-19 12:50:00",54710,"NAN","NAN","NAN","NAN","NAN","NAN","NAN","NAN",204.6,5.559,-5.741,77.08,992
"2015-01-19 13:00:00",54711,"NAN","NAN","NAN","NAN","NAN","NAN","NAN","NAN",191,4.74,-5.741,78.3,993
"2015-01-19 13:10:00",54712,"NAN","NAN","NAN","NAN","NAN","NAN","NAN","NAN",189.2,5.441,-5.706,76.36,993
"2015-01-19 13:20:00",54713,"NAN","NAN","NAN","NAN","NAN","NAN","NAN","NAN",183.6,5.506,-5.741,76.39,993
"2015-01-19 13:30:00",54714,"NAN","NAN","NAN","NAN","NAN","NAN","NAN","NAN",180.7,5.606,-5.979,77.93,993
"2015-01-19 13:40:00",54715,"NAN","NAN","NAN","NAN","NAN","NAN","NAN","NAN",191.1,4.366,-5.706,75,993
"2015-01-19 13:50:00",54716,"NAN","NAN","NAN","NAN","NAN","NAN","NAN","NAN",185.2,5.536,-5.741,76.7,993
"2015-01-19 14:00:00",54717,"NAN","NAN","NAN","NAN","NAN","NAN","NAN","NAN",190.1,6.213,-5.741,75.54,993
"2015-01-19 14:10:00",54718,"NAN","NAN","NAN","NAN","NAN","NAN","NAN","NAN",188.2,5.631,-5.775,75.81,993
"2015-01-19 14:20:00",54719,"NAN","NAN","NAN","NAN","NAN","NAN","NAN","NAN",192.5,5.953,-5.706,74.93,993
"2015-01-19 14:30:00",54720,"NAN","NAN","NAN","NAN","NAN","NAN","NAN","NAN",196.9,4.951,-5.809,75.37,994
"2015-01-19 14:40:00",54721,"NAN","NAN","NAN","NAN","NAN","NAN","NAN","NAN",194,5.155,-5.775,72.81,994
"2015-01-19 14:50:00",54722,"NAN","NAN","NAN","NAN","NAN","NAN","NAN","NAN",186.8,6.213,-5.775,74.89,994
"2015-01-19 15:00:00",54723,"NAN","NAN","NAN","NAN","NAN","NAN","NAN","NAN",190.4,5.619,-5.741,73.46,994
"2015-01-19 15:10:00",54724,"NAN","NAN","NAN","NAN","NAN","NAN","NAN","NAN",195.4,5.218,-5.741,72.17,994
"2015-01-19 15:20:00",54725,"NAN","NAN","NAN","NAN","NAN","NAN","NAN","NAN",192.9,5.873,-5.945,75.1,994
"2015-01-19 15:30:00",54726,"NAN","NAN","NAN","NAN","NAN","NAN","NAN","NAN",195.9,4.95,-5.911,72.54,994
"2015-01-19 15:40:00",54727,"NAN","NAN","NAN","NAN","NAN","NAN","NAN","NAN",195.3,5.136,-5.843,72.54,994
"2015-01-19 15:50:00",54728,"NAN","NAN","NAN","NAN","NAN","NAN","NAN","NAN",194.1,5.245,-5.877,72.64,994
"2015-01-19 16:00:00",54729,"NAN","NAN","NAN","NAN","NAN","NAN","NAN","NAN",193.4,5.178,-5.706,67.43,995
"2015-01-19 16:10:00",54730,"NAN","NAN","NAN","NAN","NAN","NAN","NAN","NAN",189.4,5.699,-5.741,69.41,995
"2015-01-19 16:20:00",54731,"NAN","NAN","NAN","NAN","NAN","NAN","NAN","NAN",181.9,4.431,-5.672,65.01,995
"2015-01-19 16:30:00",54732,"NAN","NAN","NAN","NAN","NAN","NAN","NAN","NAN",180.2,3.869,-5.775,71.45,995
"2015-01-19 16:40:00",54733,"NAN","NAN","NAN","NAN","NAN","NAN","NAN","NAN",162.1,3.78,-5.979,70.12,995
"2015-01-19 16:50:00",54734,"NAN","NAN","NAN","NAN","NAN","NAN","NAN","NAN",137.6,2.92,-6.116,71.48,995
"2015-01-19 17:00:00",54735,"NAN","NAN","NAN","NAN","NAN","NAN","NAN","NAN",123.2,2.715,-6.695,78.95,995
"2015-01-19 17:10:00",54736,"NAN","NAN","NAN","NAN","NAN","NAN","NAN","NAN",126.6,2.075,-6.388,77.59,995
"2015-01-19 17:20:00",54737,"NAN","NAN","NAN","NAN","NAN","NAN","NAN","NAN",110.8,2.134,-6.729,78.37,995
"2015-01-19 17:30:00",54738,"NAN","NAN","NAN","NAN","NAN","NAN","NAN","NAN",100.2,2.284,-6.491,76.7,996
"2015-01-19 17:40:00",54739,"NAN","NAN","NAN","NAN","NAN","NAN","NAN","NAN",100,2.516,-6.491,78.23,996
"2015-01-19 17:50:00",54740,"NAN","NAN","NAN","NAN","NAN","NAN","NAN","NAN",104.7,2.651,-6.354,78.51,996
"2015-01-19 18:00:00",54741,"NAN","NAN","NAN","NAN","NAN","NAN","NAN","NAN",115.7,2.324,-6.15,78.85,996
"2015-01-19 18:10:00",54742,"NAN","NAN","NAN","NAN","NAN","NAN","NAN","NAN",156.5,1.888,-5.266,71.04,996
"2015-01-19 18:20:00",54743,"NAN","NAN","NAN","NAN","NAN","NAN","NAN","NAN",176.9,2.181,-5.097,71.61,996
"2015-01-19 18:30:00",54744,"NAN","NAN","NAN","NAN","NAN","NAN","NAN","NAN",171.4,1.944,-5.166,71.75,996
"2015-01-19 18:40:00",54745,"NAN","NAN","NAN","NAN","NAN","NAN","NAN","NAN",153.9,1.984,-5.235,72.05,996
"2015-01-19 18:50:00",54746,"NAN","NAN","NAN","NAN","NAN","NAN","NAN","NAN",122.8,1.325,-5.441,78.39,996
"2015-01-19 19:00:00",54747,"NAN","NAN","NAN","NAN","NAN","NAN","NAN","NAN",234.2,1.11,-4.796,70.17,997
"2015-01-19 19:10:00",54748,"NAN","NAN","NAN","NAN","NAN","NAN","NAN","NAN",190.2,0.629,-4.695,67.3,997
"2015-01-19 19:20:00",54749,"NAN","NAN","NAN","NAN","NAN","NAN","NAN","NAN",82.8,1.167,-5.207,72.11,997
"2015-01-19 19:30:00",54750,"NAN","NAN","NAN","NAN","NAN","NAN","NAN","NAN",60.73,2.719,-5.957,74.53,997
"2015-01-19 19:40:00",54751,"NAN","NAN","NAN","NAN","NAN","NAN","NAN","NAN",78.64,2.829,-5.786,72.11,997
"2015-01-19 19:50:00",54752,"NAN","NAN","NAN","NAN","NAN","NAN","NAN","NAN",91.4,2.933,-5.48,67.41,997
"2015-01-19 20:00:00",54753,"NAN","NAN","NAN","NAN","NAN","NAN","NAN","NAN",89.3,3.055,-5.719,71.25,997
"2015-01-19 20:10:00",54754,"NAN","NAN","NAN","NAN","NAN","NAN","NAN","NAN",88,4.06,-5.991,67.95,997
"2015-01-19 20:20:00",54755,"NAN","NAN","NAN","NAN","NAN","NAN","NAN","NAN",84.1,2.943,-5.719,67.51,997
"2015-01-19 20:30:00",54756,"NAN","NAN","NAN","NAN","NAN","NAN","NAN","NAN",80.5,3.726,-5.923,69.99,997
"2015-01-19 20:40:00",54757,"NAN","NAN","NAN","NAN","NAN","NAN","NAN","NAN",79.63,3.408,-5.923,67.81,997
"2015-01-19 20:50:00",54758,"NAN","NAN","NAN","NAN","NAN","NAN","NAN","NAN",83.8,3.121,-5.82,68.5,997
"2015-01-19 21:00:00",54759,"NAN","NAN","NAN","NAN","NAN","NAN","NAN","NAN",79.98,2.674,-5.786,68.26,997
"2015-01-19 21:10:00",54760,"NAN","NAN","NAN","NAN","NAN","NAN","NAN","NAN",81.1,3.011,-5.82,68.02,997
"2015-01-19 21:20:00",54761,"NAN","NAN","NAN","NAN","NAN","NAN","NAN","NAN",78.38,3.172,-5.752,67.98,997
"2015-01-19 21:30:00",54762,"NAN","NAN","NAN","NAN","NAN","NAN","NAN","NAN",83.2,3.009,-5.548,68.22,997
"2015-01-19 21:40:00",54763,"NAN","NAN","NAN","NAN","NAN","NAN","NAN","NAN",79.19,3.562,-5.718,68.7,997
"2015-01-19 21:50:00",54764,"NAN","NAN","NAN","NAN","NAN","NAN","NAN","NAN",71.09,3.756,-5.584,67.16,997
"2015-01-19 22:00:00",54765,"NAN","NAN","NAN","NAN","NAN","NAN","NAN","NAN",75.67,3.349,-5.448,68.63,997
"2015-01-19 22:10:00",54766,"NAN","NAN","NAN","NAN","NAN","NAN","NAN","NAN",88.2,2.981,-5.346,67.74,997
"2015-01-19 22:20:00",54767,"NAN","NAN","NAN","NAN","NAN","NAN","NAN","NAN",81.7,2.892,-5.178,70.43,997
"2015-01-19 22:30:00",54768,"NAN","NAN","NAN","NAN","NAN","NAN","NAN","NAN",81.1,3.177,-5.315,68.08,998
"2015-01-19 22:40:00",54769,"NAN","NAN","NAN","NAN","NAN","NAN","NAN","NAN",84.5,3.315,-5.248,70.63,998
"2015-01-19 22:50:00",54770,"NAN","NAN","NAN","NAN","NAN","NAN","NAN","NAN",79.23,3.34,-5.249,68.31,998
"2015-01-19 23:00:00",54771,"NAN","NAN","NAN","NAN","NAN","NAN","NAN","NAN",85.2,3.71,-5.078,68.34,998
"2015-01-19 23:10:00",54772,"NAN","NAN","NAN","NAN","NAN","NAN","NAN","NAN",88.6,3.319,-5.318,70.04,998
"2015-01-19 23:20:00",54773,"NAN","NAN","NAN","NAN","NAN","NAN","NAN","NAN",92.3,3.716,-5.488,69.43,998
"2015-01-19 23:30:00",54774,"NAN","NAN","NAN","NAN","NAN","NAN","NAN","NAN",91.7,4.114,-5.386,72.6,998